Regional Weather Roundup
Issued by NWS

Home | Current Version | Previous Version | Graphics & Text | Print | Product List | Glossary On
Versions: 1 2 3 4 5 6 7 8 9 10 11 12 13 14 15 16 17 18 19 20 21 22 23 24 25 26 27 28 29 30 31 32 33 34 35 36 37 38 39 40 41 42 43 44 45 46 47 48 49 50
000
ASUS43 KFSD 120210
RWRSD

WEATHER ROUNDUP FOR SOUTH DAKOTA
NATIONAL WEATHER SERVICE SIOUX FALLS SD
900 PM CDT FRI JUL 11 2014

NOTE: "FAIR" INDICATES FEW OR NO CLOUDS BELOW 12,000 FEET WITH NO
SIGNIFICANT WEATHER AND/OR OBSTRUCTIONS TO VISIBILITY.


SDZ001>005-009-010-012>017-120300-
NORTHWEST AND NORTH CENTRAL SOUTH DAKOTA

CITY           SKY/WX    TMP DP  RH WIND       PRES   REMARKS
BUFFALO          N/A     71  56  58 NE14      30.04S
FAITH            N/A     75  64  68 NE9       30.06R
MOBRIDGE       CLOUDY    75  63  66 N9        30.01R
$$

SDZ012>016-024>037-041>051-057-063-072>074-120300-
SOUTHWEST AND SOUTH CENTRAL SOUTH DAKOTA

CITY           SKY/WX    TMP DP  RH WIND       PRES   REMARKS
RAPID CTY ARPT CLOUDY    67  61  81 SW9       30.11R
PIERRE         CLOUDY    78  63  59 NE5       29.98R
CUSTER         LGT RAIN  60  58  92 NE6       30.25R
ELLSWORTH AFB  CLOUDY    68  62  82 SW12      30.10R
PHILIP         CLOUDY    80  69  69 E6        30.03R
PINE RIDGE     LGT RAIN  64  63  96 E9        30.15R FOG
WINNER         MOCLDY    79  71  76 SE6       30.00R
$$

SDZ004>011-016>023-039-040-120300-
NORTHEAST SOUTH DAKOTA

CITY           SKY/WX    TMP DP  RH WIND       PRES   REMARKS
ABERDEEN       MOCLDY    77  62  59 N8        29.99R
WATERTOWN      MOCLDY    80  66  62 NE3       30.00R
SISSETON         N/A     79  70  74 N5        29.97R
$$

SDZ017-020-022-023-036>040-048>070-120300-
SOUTHEAST SOUTH DAKOTA

CITY           SKY/WX    TMP DP  RH WIND       PRES   REMARKS
SIOUX FALLS    MOCLDY    77  72  84 S5        29.99S
HURON          CLOUDY    82  66  58 E5        29.97R
CHAMBERLAIN    CLOUDY    78  67  68 S7        29.98S
MITCHELL       CLOUDY    81  74  79 SE6       29.97S
YANKTON        CLOUDY   N/A N/A N/A S3        30.00S
$$

ABBREVIATIONS USED IN REMARKS
   TC - TEMPERATURE IN CELSIUS
  WCI - WIND CHILL INDEX
   HX - HEAT INDEX
  VSB - VISIBILITY




USA.gov is the U.S. government's official web portal to all federal, state and local government web resources and services.